Regional Weather Roundup
Issued by NWS Midland/Odessa, TX

Skip options and go directly to product.
Home | Oldest Version | Next Version | Current Version | All | Text Only | Save Text | Print | Product List | Glossary On

Skip product version selection by date and time.   
283
ASUS44 KMAF 010601
RWRMAF
MIDLAND AREA WEATHER ROUNDUP
NATIONAL WEATHER SERVICE MIDLAND TX
100 AM CDT TUE SEP 01 2015

...IN SOUTHWEST TEXAS AND SOUTHEAST NEW MEXICO...

CITY           SKY/WX    TMP DP  RH WIND       PRES   REMARKS
ALPINE         FAIR      71  52  50 S8        30.17S
ANDREWS        FAIR      74  55  50 S7        30.05S
ARTESIA        PTCLDY    77  48  36 S8        30.04S
BIG SPRING     FAIR      75  53  46 SE9       30.05R
CARLSBAD       CLEAR     78  47  33 S8        30.02R
DRYDEN           N/A     83  58  42 SE9       29.99S
FORT STOCKTON  FAIR      79  55  43 SE13      30.03R
GUAD PASS      PTCLDY    73  40  30 NE20      30.18S
HOBBS            N/A     72  54  53 S9        30.07S
MARFA          FAIR      61  43  51 NW5       30.17R
MIDLAND AIRPK  FAIR      80  54  40 S7        30.03S
MIDLAND INTL   FAIR      78  55  44 S7        30.03R
ODESSA         FAIR      79  52  38 S9        30.04R
PECOS          FAIR      81  53  38 SE13      29.98S
PRESIDIO       NOT AVBL
SEMINOLE       FAIR      69  53  55 S6        30.06S
SNYDER         FAIR      78  56  47 SE10      30.02S
WINK           FAIR      77  55  46 SE8       30.00S
$$
...OTHER STATIONS IN TEXAS...

CITY           SKY/WX    TMP DP  RH WIND       PRES   REMARKS
ABILENE        FAIR      76  59  55 SE12      30.01S
AMARILLO       FAIR      74  52  46 S15       30.05S
AUSTIN         FAIR      74  71  91 S7        30.04R
BROWNSVILLE    FAIR      79  78  97 SE9       29.95F
CORPUS CHRISTI FAIR      79  75  87 SE7       29.98F
DALLAS FTW     FAIR      82  65  56 S9        30.00R
DEL RIO        FAIR      79  62  56 SE9G18    29.99R
EL PASO        PTCLDY    85  42  22 W5        30.03R
HOUSTON INT    MOCLDY    74  72  93 CALM      30.04R
LUBBOCK        FAIR      72  56  57 SE10      30.05R
SAN ANGELO     FAIR      80  57  45 S12       30.00R
SAN ANTONIO    MOCLDY    78  70  76 SE9       30.04S
WACO           FAIR      79  68  69 S14       30.02R
WICHITA FALLS  NOT AVBL
$$
...OTHER LOCATIONS IN NEW MEXICO...

CITY           SKY/WX    TMP DP  RH WIND       PRES   REMARKS
ALAMAGORDO     PTCLDY    72  48  43 E3        30.06S
ALBUQUERQUE    MOCLDY    75  48  38 W6        30.18R
CANNON AFB     PTCLDY    69  51  53 S5        30.09R
CLOVIS         MOCLDY    70  50  49 S8        30.10S
HOLLOMAN AFB   MOCLDY    76  52  43 VRB5      30.04R
ROSWELL        PTCLDY    75  50  41 W6        30.04S
RUIDOSO        PTCLDY    63  48  59 MISG      30.29F
SANTA FE       MOCLDY    65  51  60 N9        30.22R
TRUTH OR CONSE PTCLDY    74  51  44 NW10      30.13R
TUCUMCARI      PTCLDY    79  47  32 S7        30.04R
$$

USA.gov is the U.S. government's official web portal to all federal, state and local government web resources and services.